Weather History for Coleman, TX

Change the Weather History Date:

Thursday, August 28, 2014

  Actual Average (KABI) Record (KABI)
Temperature  
Mean Temperature 84 °F 81 °F  
Max Temperature 97 °F 92 °F 107 °F (2011)
Min Temperature 71 °F 70 °F 50 °F (1992)
Degree Days  
Heating Degree Days 0 0  
Month to date heating degree days 0  
Since 1 June heating degree days 1  
Since 1 July heating degree days 0  
Cooling Degree Days 18 16  
Month to date cooling degree days 506  
Year to date cooling degree days 1899  
Since 1 June cooling degree days 1502  
Growing Degree Days 34 (Base 50)    
Moisture  
Dew Point 58 °F    
Average Humidity 43    
Maximum Humidity 65    
Minimum Humidity 24    
Precipitation  
Precipitation 0.00 in 0.09 in 2.89 in (1974)
Month to date precipitation 2.32  
Year to date precipitation 16.69  
Sea Level Pressure  
Sea Level Pressure 29.95 in    
Wind  
Wind Speed 6 mph (SSE)    
Max Wind Speed 20 mph    
Max Gust Speed 25 mph    
Visibility 10 miles    
Events      
T = Trace of Precipitation, MM = Missing Value Source: NWS Daily Summary

Daily Weather History Graph

Daily Weather History Graph

Search for Another Location

Airport:

Trip Planner

Search our weather history database for the weather conditions in past years. The results will help you decide how hot, cold, wet, or windy it might be!

Date:

Astronomy

Aug. 28, 2014 Rise Set
Actual Time 7:10 AM CDT 8:06 PM CDT
Civil Twilight 6:45 AM CDT 8:31 PM CDT
Nautical Twilight 6:16 AM CDT 9:00 PM CDT
Astronomical Twilight 5:45 AM CDT 9:31 PM CDT
Moon 9:51 AM CDT (8/28) 9:45 PM CDT (8/28)
Length of Visible Light 13h 45m
Length of Day
12h 55m
Waxing Crescent, 9% of the Moon is Illuminated
Aug 28
Waxing Crescent
Sep 2
First Quarter
Sep 8
Full
Sep 15
Last Quarter
Sep 24
New

Hourly Weather History & Observations

Time (CDT) Temp. Heat Index Dew Point Humidity Pressure Visibility Wind Dir Wind Speed Gust Speed Precip Events Conditions
12:15 AM 79.3 °F - 60.4 °F 52% 30.03 in 10.0 mi SE 4.6 mph - N/A   Clear
12:35 AM 78.8 °F - 60.4 °F 53% 30.03 in 10.0 mi SE 5.8 mph - N/A   Clear
12:55 AM 78.4 °F - 60.1 °F 53% 30.03 in 10.0 mi SE 3.5 mph - N/A   Clear
1:15 AM 77.9 °F - 59.9 °F 54% 30.03 in 10.0 mi SE 4.6 mph - N/A   Clear
1:35 AM 77.5 °F - 59.5 °F 54% 30.03 in 10.0 mi SE 4.6 mph - N/A   Clear
1:55 AM 77.2 °F - 59.0 °F 53% 30.03 in 10.0 mi SE 4.6 mph - N/A   Clear
2:15 AM 77.2 °F - 58.6 °F 53% 30.01 in 10.0 mi SE 4.6 mph - N/A   Clear
2:35 AM 76.3 °F - 58.6 °F 54% 30.01 in 10.0 mi SE 4.6 mph - N/A   Clear
2:55 AM 75.9 °F - 58.3 °F 54% 30.00 in 10.0 mi SE 4.6 mph - N/A   Clear
3:15 AM 76.3 °F - 57.6 °F 52% 30.00 in 10.0 mi SSE 5.8 mph - N/A   Clear
3:35 AM 76.1 °F - 57.2 °F 52% 30.00 in 10.0 mi SE 4.6 mph - N/A   Clear
3:55 AM 76.5 °F - 55.8 °F 49% 30.00 in 10.0 mi SSE 6.9 mph - N/A   Clear
4:15 AM 76.1 °F - 55.8 °F 49% 30.00 in 10.0 mi SSE 5.8 mph - N/A   Clear
4:35 AM 75.4 °F - 56.3 °F 51% 30.00 in 10.0 mi SSE 4.6 mph - N/A   Clear
4:55 AM 75.2 °F - 56.5 °F 52% 29.99 in 10.0 mi South 4.6 mph - N/A   Clear
5:15 AM 73.8 °F - 57.0 °F 56% 29.99 in 10.0 mi Calm Calm - N/A   Clear
5:35 AM 72.9 °F - 57.4 °F 58% 29.99 in 10.0 mi Calm Calm - N/A   Clear
5:55 AM 72.5 °F - 57.4 °F 59% 30.00 in 10.0 mi Calm Calm - N/A   Clear
6:15 AM 72.3 °F - 57.6 °F 60% 30.00 in 10.0 mi Calm Calm - N/A   Clear
6:35 AM 72.0 °F - 57.7 °F 61% 29.99 in 10.0 mi Calm Calm - N/A   Clear
6:55 AM 71.6 °F - 57.9 °F 62% 30.00 in 10.0 mi Calm Calm - N/A   Clear
7:15 AM 71.1 °F - 58.1 °F 63% 30.00 in 10.0 mi Calm Calm - N/A   Clear
7:35 AM 71.6 °F - 58.6 °F 64% 30.00 in 10.0 mi South 3.5 mph - N/A   Clear
7:55 AM 71.4 °F - 59.0 °F 65% 30.01 in 10.0 mi Calm Calm - N/A   Clear
8:15 AM 72.9 °F - 59.2 °F 62% 30.01 in 10.0 mi Calm Calm - N/A   Clear
8:35 AM 74.8 °F - 59.9 °F 60% 30.01 in 10.0 mi SSE 3.5 mph - N/A   Clear
8:55 AM 76.6 °F - 60.8 °F 58% 30.01 in 10.0 mi South 4.6 mph - N/A   Clear
9:15 AM 79.0 °F - 61.9 °F 56% 30.01 in 10.0 mi South 6.9 mph - N/A   Clear
9:55 AM 82.2 °F 83.3 °F 62.8 °F 52% 30.01 in 10.0 mi SW 8.1 mph - N/A   Clear
10:15 AM 82.8 °F 83.6 °F 62.2 °F 50% 30.01 in 10.0 mi SSW 8.1 mph - N/A   Clear
10:35 AM 84.0 °F 84.7 °F 62.4 °F 48% 30.01 in 10.0 mi SSW 4.6 mph - N/A   Clear
10:55 AM 86.0 °F 86.3 °F 61.7 °F 44% 30.01 in 10.0 mi South 9.2 mph - N/A   Clear
11:15 AM 87.4 °F 87.7 °F 61.5 °F 42% 30.01 in 10.0 mi South 5.8 mph - N/A   Clear
11:35 AM 88.0 °F 87.1 °F 58.8 °F 37% 30.00 in 10.0 mi SSW 8.1 mph - N/A   Clear
11:55 AM 88.7 °F 88.0 °F 59.5 °F 37% 30.00 in 10.0 mi SSW 8.1 mph - N/A   Clear
12:15 PM 89.8 °F 89.1 °F 59.2 °F 36% 29.99 in 10.0 mi SSW 6.9 mph - N/A   Clear
12:35 PM 90.9 °F 90.3 °F 59.7 °F 35% 29.99 in 10.0 mi SSE 10.4 mph - N/A   Clear
12:55 PM 91.0 °F 90.2 °F 59.0 °F 34% 29.98 in 10.0 mi South 9.2 mph - N/A   Clear
1:15 PM 90.9 °F 90.3 °F 59.5 °F 35% 29.96 in 10.0 mi South 5.8 mph - N/A   Clear
1:35 PM 92.5 °F 91.9 °F 59.4 °F 33% 29.96 in 10.0 mi WSW 5.8 mph - N/A   Scattered Clouds
1:55 PM 93.0 °F 92.0 °F 58.6 °F 31% 29.95 in 10.0 mi SSE 3.5 mph - N/A   Scattered Clouds
2:15 PM 92.5 °F 91.3 °F 58.1 °F 31% 29.94 in 10.0 mi Calm Calm - N/A   Clear
2:35 PM 93.2 °F 92.2 °F 58.1 °F 31% 29.93 in 10.0 mi Calm Calm - N/A   Scattered Clouds
2:55 PM 94.1 °F 92.8 °F 57.0 °F 29% 29.93 in 10.0 mi South 5.8 mph - N/A   Scattered Clouds
3:15 PM 95.0 °F 93.4 °F 56.3 °F 27% 29.92 in 10.0 mi South 4.6 mph - N/A   Clear
3:35 PM 93.6 °F 91.8 °F 55.9 °F 28% 29.91 in 10.0 mi East 4.6 mph 9.2 mph N/A   Scattered Clouds
3:55 PM 95.9 °F 93.9 °F 54.5 °F 25% 29.90 in 10.0 mi SSW 5.8 mph - N/A   Scattered Clouds
4:15 PM 96.1 °F 94.1 °F 55.0 °F 25% 29.89 in 10.0 mi SSE 6.9 mph - N/A   Scattered Clouds
4:35 PM 96.3 °F 94.4 °F 54.9 °F 25% 29.88 in 10.0 mi ESE 8.1 mph - N/A   Scattered Clouds
4:55 PM 95.4 °F 93.5 °F 55.0 °F 26% 29.87 in 10.0 mi SE 8.1 mph - N/A   Scattered Clouds
5:15 PM 95.5 °F 93.4 °F 54.3 °F 25% 29.86 in 10.0 mi Calm Calm - N/A   Clear
5:35 PM 95.4 °F 93.5 °F 54.9 °F 26% 29.86 in 10.0 mi ESE 5.8 mph 17.3 mph N/A   Clear
5:55 PM 96.4 °F 94.3 °F 53.8 °F 24% 29.86 in 10.0 mi SSE 9.2 mph - N/A   Clear
6:15 PM 96.4 °F 94.3 °F 54.1 °F 24% 29.85 in 10.0 mi SE 12.7 mph 16.1 mph N/A   Scattered Clouds
6:35 PM 95.2 °F 92.7 °F 53.4 °F 24% 29.84 in 10.0 mi SE 16.1 mph 20.7 mph N/A   Scattered Clouds
6:55 PM 94.3 °F 91.8 °F 53.4 °F 25% 29.85 in 10.0 mi SSE 13.8 mph - N/A   Clear
7:15 PM 93.7 °F 91.2 °F 53.1 °F 25% 29.85 in 10.0 mi SE 10.4 mph - N/A   Clear
7:35 PM 93.0 °F 90.6 °F 53.1 °F 26% 29.85 in 10.0 mi SSE 12.7 mph - N/A   Clear
7:55 PM 91.4 °F - 52.9 °F 27% 29.85 in 10.0 mi SE 8.1 mph - N/A   Clear
8:15 PM 89.6 °F 87.3 °F 53.1 °F 29% 29.85 in 10.0 mi SE 4.6 mph - N/A   Clear
8:35 PM 87.3 °F 85.3 °F 54.0 °F 32% 29.86 in 10.0 mi SE 8.1 mph - N/A   Clear
8:55 PM 87.3 °F 86.1 °F 57.0 °F 36% 29.86 in 10.0 mi ESE 8.1 mph - N/A   Clear
9:15 PM 86.9 °F 86.1 °F 58.1 °F 38% 29.87 in 10.0 mi SE 9.2 mph - N/A   Clear
9:35 PM 86.4 °F 85.4 °F 58.3 °F 38% 29.89 in 10.0 mi SE 6.9 mph - N/A   Clear
9:55 PM 85.3 °F 84.8 °F 59.0 °F 41% 29.89 in 10.0 mi SE 6.9 mph - N/A   Clear
10:15 PM 86.0 °F 87.1 °F 63.3 °F 47% 29.89 in 10.0 mi SE 16.1 mph - N/A   Clear
10:35 PM 85.3 °F 86.8 °F 64.6 °F 50% 29.89 in 10.0 mi SE 19.6 mph 25.3 mph N/A   Clear
10:55 PM 84.9 °F 86.6 °F 65.1 °F 51% 29.90 in 10.0 mi SE 16.1 mph 21.9 mph N/A   Clear
11:15 PM 84.6 °F 86.3 °F 65.3 °F 52% 29.91 in 10.0 mi SSE 16.1 mph 21.9 mph N/A   Clear
11:35 PM 84.2 °F 86.1 °F 65.5 °F 53% 29.91 in 10.0 mi SSE 16.1 mph 19.6 mph N/A   Clear
11:55 PM 83.5 °F 85.7 °F 66.2 °F 56% 29.93 in 10.0 mi SE 12.7 mph 20.7 mph N/A   Scattered Clouds